Location: Gülübeli Geçidi
(36.8411°N, 29.7411°E)
Time: 07:41:37
(UTC+00:00)

CENTAUR R/B - Pass Details

Date: 15 May 2026
Orbit: 622 x 1558 km, 63.4° (Epoch: 5 June)

Event Time Altitude Azimuth Distance (km) Brightness Sun altitude
Exits shadow 23:31:15 53° 89° (E) 1,017 2.6 -29.9°
Drops below altitude 10° 23:36:41 10° 39° (NE) 2,723 5.7 -29.4°
Sets 23:39:38 0° 36° (NE) 3,833 6.8 -29.1°
